| time (UTC) | temp F | wind direction | speed knots | gust knots | rain 1hr in | rain 24hr in | rain mn in | humidity % | barometer mb |
| 20260904124623 | 68 | 64 | 1.7 | 3.5 | 0.00 | 0.02 | 0.00 | 90 | 1008.8 |
| 20260904123002 | 68 | 67 | 0.0 | 3.5 | 0.00 | 0.02 | 0.00 | 90 | 1008.8 |
| 20260904121514 | 67 | 67 | 1.7 | 3.5 | 0.00 | 0.02 | 0.00 | 89 | 1008.7 |
| 20260904120011 | 67 | 88 | 1.7 | 4.3 | 0.00 | 0.02 | 0.00 | 88 | 1008.5 |
| 20260904114510 | 67 | 65 | 0.9 | 2.6 | 0.00 | 0.02 | 0.00 | 88 | 1008.7 |
| 20260904113126 | 67 | 65 | 0.0 | 4.3 | 0.00 | 0.02 | 0.00 | 88 | 1008.4 |
| 20260904111513 | 67 | 80 | 1.7 | 3.5 | 0.00 | 0.02 | 0.00 | 88 | 1008.1 |
| 20260904110129 | 67 | 69 | 2.6 | 7.8 | 0.00 | 0.02 | 0.00 | 88 | 1007.9 |
| 20260904104502 | 66 | 60 | 2.6 | 7.8 | 0.00 | 0.02 | 0.00 | 88 | 1008.1 |
| 20260904103008 | 66 | 70 | 4.3 | 10.4 | 0.00 | 0.02 | 0.00 | 89 | 1008.1 |
| 20260904101514 | 66 | 98 | 3.5 | 8.7 | 0.00 | 0.02 | 0.00 | 88 | 1008.2 |
| 20260904100001 | 66 | 99 | 3.5 | 8.7 | 0.00 | 0.02 | 0.00 | 88 | 1008.2 |
| 20260904094506 | 65 | 92 | 4.3 | 8.7 | 0.00 | 0.02 | 0.00 | 88 | 1008.3 |
| 20260904093020 | 65 | 54 | 4.3 | 12.2 | 0.00 | 0.02 | 0.00 | 88 | 1008.3 |
| 20260904091509 | 65 | 52 | 5.2 | 9.6 | 0.00 | 0.02 | 0.00 | 88 | 1008.4 |
| 20260904090007 | 65 | 27 | 4.3 | 9.6 | 0.00 | 0.02 | 0.00 | 89 | 1008.3 |
| 20260904084512 | 65 | 9 | 2.6 | 8.7 | 0.00 | 0.02 | 0.00 | 89 | 1008.4 |
| 20260904083129 | 65 | 5 | 3.5 | 12.2 | 0.00 | 0.02 | 0.00 | 89 | 1008.2 |
| 20260904081510 | 67 | 54 | 4.3 | 12.2 | 0.00 | 0.02 | 0.00 | 89 | 1008.3 |
| 20260904080008 | 69 | 20 | 6.1 | 20.9 | 0.00 | 0.02 | 0.00 | 89 | 1007.8 |
| 20260904074507 | 70 | 15 | 2.6 | 3.5 | 0.00 | 0.02 | 0.00 | 90 | 1007.2 |
| 20260904073034 | 71 | 35 | 0.9 | 3.5 | 0.00 | 0.02 | 0.00 | 90 | 1007.3 |
| 20260904071623 | 72 | 59 | 1.7 | 3.5 | 0.00 | 0.02 | 0.00 | 89 | 1007.1 |
| 20260904070124 | 73 | 57 | 0.9 | 3.5 | 0.00 | 0.02 | 0.00 | 89 | 1007.1 |
| 20260904064517 | 73 | 51 | 1.7 | 5.2 | 0.00 | 0.02 | 0.00 | 89 | 1007.1 |
| 20260904063003 | 73 | 50 | 2.6 | 5.2 | 0.00 | 0.02 | 0.00 | 89 | 1007.3 |
| 20260904061628 | 73 | 57 | 1.7 | 6.1 | 0.00 | 0.02 | 0.00 | 88 | 1007.1 |
| 20260904060001 | 73 | 90 | 1.7 | 5.2 | 0.00 | 0.02 | 0.00 | 88 | 1007.1 |
| 20260904054510 | 74 | 128 | 3.5 | 7.0 | 0.00 | 0.02 | 0.00 | 87 | 1007.4 |
| 20260904053007 | 74 | 80 | 3.5 | 7.8 | 0.00 | 0.02 | 0.00 | 87 | 1007.3 |
| 20260904051510 | 74 | 101 | 3.5 | 7.0 | 0.00 | 0.02 | 0.00 | 86 | 1007.3 |
| 20260904050009 | 74 | 70 | 1.7 | 6.1 | 0.00 | 0.02 | 0.00 | 86 | 1007.6 |
| 20260904044512 | 74 | 92 | 3.5 | 7.8 | 0.00 | 0.02 | 0.02 | 86 | 1007.4 |
| 20260904043130 | 74 | 13 | 2.6 | 7.8 | 0.00 | 0.02 | 0.02 | 86 | 1007.5 |
| 20260904041512 | 74 | 124 | 4.3 | 10.4 | 0.00 | 0.02 | 0.02 | 86 | 1007.2 |
| 20260904040010 | 74 | 137 | 7.0 | 12.2 | 0.00 | 0.02 | 0.02 | 86 | 1007.0 |
| 20260904034516 | 74 | 123 | 7.0 | 14.8 | 0.00 | 0.02 | 0.02 | 87 | 1006.9 |
| 20260904033021 | 74 | 124 | 5.2 | 9.6 | 0.00 | 0.02 | 0.02 | 86 | 1006.9 |
| 20260904031510 | 74 | 128 | 5.2 | 9.6 | 0.00 | 0.02 | 0.02 | 86 | 1007.0 |
| 20260904030016 | 74 | 93 | 5.2 | 9.6 | 0.00 | 0.02 | 0.02 | 86 | 1007.2 |
| 20260904024507 | 73 | 70 | 4.3 | 8.7 | 0.00 | 0.02 | 0.02 | 86 | 1007.3 |
| 20260904023149 | 73 | 92 | 4.3 | 9.6 | 0.00 | 0.02 | 0.02 | 86 | 1007.2 |
| 20260904021511 | 73 | 69 | 5.2 | 10.4 | 0.00 | 0.02 | 0.02 | 85 | 1007.0 |
| 20260904020136 | 74 | 98 | 5.2 | 8.7 | 0.00 | 0.02 | 0.02 | 84 | 1007.0 |
| 20260904014512 | 74 | 86 | 5.2 | 9.6 | 0.00 | 0.02 | 0.02 | 83 | 1006.8 |
| 20260904013014 | 75 | 103 | 6.1 | 10.4 | 0.00 | 0.02 | 0.02 | 82 | 1006.5 |
| 20260904011502 | 75 | 95 | 6.1 | 10.4 | 0.00 | 0.02 | 0.02 | 81 | 1006.4 |
| 20260904010124 | 76 | 85 | 6.1 | 9.6 | 0.00 | 0.02 | 0.02 | 80 | 1006.3 |
| 20260904004626 | 76 | 112 | 5.2 | 9.6 | 0.00 | 0.02 | 0.02 | 79 | 1006.5 |
| 20260904003012 | 77 | 96 | 4.3 | 8.7 | 0.00 | 0.02 | 0.02 | 78 | 1006.5 |
| 20260904001626 | 78 | 130 | 4.3 | 7.8 | 0.00 | 0.02 | 0.02 | 76 | 1006.6 |
| 20260904000017 | 78 | 128 | 6.1 | 12.2 | 0.00 | 0.02 | 0.02 | 75 | 1006.4 |
| 20260903234621 | 79 | 130 | 7.8 | 11.3 | 0.00 | 0.02 | 0.02 | 74 | 1006.3 |
| 20260903233123 | 79 | 144 | 7.0 | 12.2 | 0.00 | 0.02 | 0.02 | 73 | 1006.1 |
| 20260903231503 | 80 | 120 | 6.1 | 10.4 | 0.00 | 0.02 | 0.02 | 74 | 1005.9 |
| 20260903230125 | 79 | 141 | 4.3 | 8.7 | 0.02 | 0.02 | 0.02 | 76 | 1005.9 |
| 20260903224510 | 78 | 115 | 5.2 | 9.6 | 0.02 | 0.02 | 0.02 | 79 | 1006.1 |
| 20260903223013 | 75 | 107 | 4.3 | 8.7 | 0.02 | 0.02 | 0.02 | 82 | 1006.0 |
| 20260903221504 | 76 | 112 | 5.2 | 8.7 | 0.02 | 0.02 | 0.02 | 77 | 1006.1 |
| 20260903220005 | 79 | 145 | 5.2 | 14.8 | 0.00 | 0.00 | 0.00 | 68 | 1006.2 |
| 20260903214628 | 80 | 171 | 6.1 | 13.0 | 0.00 | 0.00 | 0.00 | 68 | 1006.1 |
| 20260903213018 | 80 | 165 | 6.1 | 11.3 | 0.00 | 0.00 | 0.00 | 66 | 1006.2 |
| 20260903211627 | 81 | 163 | 3.5 | 12.2 | 0.00 | 0.00 | 0.00 | 66 | 1006.3 |
| 20260903210014 | 83 | 167 | 8.7 | 13.9 | 0.00 | 0.00 | 0.00 | 64 | 1005.9 |
| 20260903204502 | 85 | 266 | 6.1 | 13.9 | 0.00 | 0.00 | 0.00 | 61 | 1006.1 |
| 20260903203015 | 83 | 128 | 5.2 | 14.8 | 0.00 | 0.00 | 0.00 | 62 | 1006.0 |
| 20260903201517 | 84 | 155 | 8.7 | 16.5 | 0.00 | 0.00 | 0.00 | 60 | 1006.4 |
| 20260903200007 | 84 | 167 | 6.1 | 15.6 | 0.00 | 0.00 | 0.00 | 62 | 1006.4 |
| 20260903194515 | 85 | 159 | 7.0 | 17.4 | 0.00 | 0.00 | 0.00 | 59 | 1006.4 |
| 20260903193014 | 86 | 187 | 7.8 | 10.4 | 0.00 | 0.00 | 0.00 | 57 | 1006.5 |
| 20260903191511 | 86 | 168 | 7.8 | 15.6 | 0.00 | 0.00 | 0.00 | 58 | 1006.6 |
| 20260903190126 | 86 | 157 | 6.1 | 13.9 | 0.00 | 0.00 | 0.00 | 57 | 1006.7 |
| 20260903184509 | 86 | 156 | 6.1 | 15.6 | 0.00 | 0.00 | 0.00 | 57 | 1006.8 |
| 20260903183127 | 85 | 114 | 5.2 | 11.3 | 0.00 | 0.00 | 0.00 | 60 | 1006.9 |
| 20260903181508 | 84 | 115 | 5.2 | 13.0 | 0.00 | 0.00 | 0.00 | 65 | 1007.1 |
| 20260903180035 | 84 | 122 | 8.7 | 13.0 | 0.00 | 0.00 | 0.00 | 66 | 1007.2 |
| 20260903174627 | 83 | 116 | 9.6 | 14.8 | 0.00 | 0.00 | 0.00 | 64 | 1007.4 |
| 20260903173004 | 82 | 117 | 2.6 | 10.4 | 0.00 | 0.00 | 0.00 | 67 | 1007.7 |
| 20260903171511 | 84 | 128 | 4.3 | 10.4 | 0.00 | 0.00 | 0.00 | 68 | 1007.9 |
| 20260903170015 | 82 | 125 | 4.3 | 8.7 | 0.00 | 0.00 | 0.00 | 69 | 1008.1 |
| 20260903164513 | 80 | 130 | 3.5 | 7.0 | 0.00 | 0.00 | 0.00 | 71 | 1008.4 |
| 20260903163010 | 80 | 167 | 3.5 | 7.8 | 0.00 | 0.00 | 0.00 | 70 | 1008.4 |
| 20260903161505 | 80 | 121 | 2.6 | 7.0 | 0.00 | 0.00 | 0.00 | 72 | 1008.4 |
| 20260903160016 | 80 | 126 | 2.6 | 7.8 | 0.00 | 0.00 | 0.00 | 75 | 1008.5 |
| 20260903154636 | 80 | 124 | 3.5 | 8.7 | 0.00 | 0.00 | 0.00 | 72 | 1008.3 |
| 20260903153018 | 79 | 111 | 2.6 | 7.0 | 0.00 | 0.00 | 0.00 | 75 | 1008.3 |
| 20260903151504 | 78 | 129 | 4.3 | 7.8 | 0.00 | 0.00 | 0.00 | 77 | 1008.3 |
| 20260903150126 | 77 | 96 | 4.3 | 7.8 | 0.00 | 0.00 | 0.00 | 76 | 1008.4 |
| 20260903144630 | 77 | 100 | 3.5 | 7.0 | 0.00 | 0.00 | 0.00 | 77 | 1008.6 |
| 20260903143128 | 76 | 128 | 5.2 | 7.8 | 0.00 | 0.00 | 0.00 | 78 | 1008.5 |
| 20260903141522 | 74 | 125 | 2.6 | 8.7 | 0.00 | 0.00 | 0.00 | 79 | 1008.5 |
| 20260903140127 | 73 | 59 | 3.5 | 8.7 | 0.00 | 0.00 | 0.00 | 80 | 1008.6 |
| 20260903134626 | 71 | 108 | 3.5 | 8.7 | 0.00 | 0.00 | 0.00 | 81 | 1008.7 |
| 20260903133002 | 70 | 83 | 4.3 | 8.7 | 0.00 | 0.00 | 0.00 | 81 | 1008.8 |
| 20260903131503 | 69 | 74 | 4.3 | 7.8 | 0.00 | 0.00 | 0.00 | 82 | 1009.0 |
| 20260903130012 | 68 | 135 | 4.3 | 8.7 | 0.00 | 0.00 | 0.00 | 82 | 1009.0 |